Powrót do katalogu

RADUGA 2

AktywnyMilitariaGEO
NORAD 9416·PAYLOAD·🇷🇺 Russia

Wystrzelony Sep 11, 1976 z Baikonur Cosmodrome

Loading…

TLE

ŚwieżeSource: Space-Track

Epoka: Sep 14, 2026, 14:09 UTC

1 09416U 76092A   26257.58966108 -.00000087  00000-0  00000-0 0  9995
2 09416   3.2522 268.0637 0028063  40.4499 330.7209  1.00298405130240

Śledź RADUGA 2 w czasie rzeczywistym z AllMySat

Download on the App Store